COSMOS 1275 DEB, 12670

Orbit data source: Space-Track

COSMOS 1275 DEB, 12670 is space debris in LEO originally from a launch on Thu, 04 Jun 1981 UTC launched from the Plesetsk Missile And Space Complex (PKMTR). Debris objects in space refer to the collection of defunct objects orbiting the Earth. Examples of debris include non-operational satellites, rocket bodies, and fragments generated from explosions, collisions, or faulty payload assembly.

Loading next visibility...
Identifier
12670, 1981-053AA
Orbit
LEO
Country
Flag of CISCIS
Related business
Manufacturer
Unknown
Mission
Spacecraft
Bus & Motor
Unknown
Mass
Unknown
Launch date (UTC)
1981-06-04 (44 years ago)
Launch vehicle
Unknown
Launch site
Plesetsk Missile And Space Complex (PKMTR)
Object type
Payload
Rocket body
Debris
Shape & HBR
Unknown shape, 0.4 m
Radar Cross Section
Medium (>0.1 m² and <1 m²)

Expand to show TLE details & history
Last TLE update: 18 hours ago

TLE from 18 hours ago
0 COSMOS 1275 DEB
1 12670U 81053AA  25312.60923390  .00000712  00000-0  65440-3 0  9990
2 12670  82.9434   9.6554 0054411 327.2703 185.2954 13.80920517223328
Epoch: 2025-11-08T14:37Z
TLE epoch observation values (Epoch: 2025-11-08T14:37:17.808Z)
Latitude
27.30388°
Longitude
-81.35002°
Altitude
1,003.734 km
Speed
7.332 km/s
True Right ascension
12h 24m 02s
True Declination
27° 10' 07"
Sunlit
Object was in daylight at epoch
Visualization orbit readout
Latitude
Unknown
Longitude
Unknown
Altitude
Unknown
Speed
Unknown
Apparent Right ascension
Unknown
Apparent Declination
Unknown
Sunlit
N/A
Visualization observer readout
Local Sidereal Time
04:22:19
Azimuth
Unknown
Elevation
Unknown
Doppler factor
Unknown
Orbital elements
Apogee altitude
997.679 km
Perigee altitude
917.849 km
Semi-major axis
7,335.901 km
Eccentricity
0.00544
Inclination
82.9434°
RAAN
9.6554°
Arg. of periapsis
327.2703°
True anomaly
185.23824°
Mean anomaly
185.2954°
Eccentric anomaly
185.26678°
Mean motion
3.45432 °/min
Orbital period
104.22 mins
BSTAR
0.0006544
Loading maneuver chart data...
Computing Atmospheric mass density...

Documentation

Showing up to 5 results
|